{"data":{"norad_id":62817,"epoch":"2026-05-25T04:32:31.206048Z","epoch_age_seconds":54598,"freshness":"FRESH","line1":"1 62817U 25018M   26145.18925007  .00020585  00000+0  70504-3 0  9998","line2":"2 62817  53.1600 314.0616 0001186  83.2738 276.8397 15.30207208 75832","mean_motion":15.30207208,"eccentricity":0.0001186,"inclination_deg":53.16,"raan_deg":314.0616,"arg_perigee_deg":83.2738,"mean_anomaly_deg":276.8397,"bstar":0.00070504,"rev_number":7583,"period_min":94.104902425737,"perigee_km":474.3807427121,"apogee_km":476.00635271802,"semimajor_km":6853.3305477151,"source":"CELESTRAK","updated_at":"2026-05-25T13:38:19.775315Z"}}